Starlink 30791

operational
NORAD ID: 58177 Int'l Des: 2023-167 Owner: SPXS Country: US Constellation: starlink
LEOCIRCULAR

Starlink 30791について

説明を読み込み中...

リアルタイム位置

3D地球を読み込み中...

次回通過

高度履歴

Altitude vs Time

uPlot chart will show altitude changes over time

軌道要素

1 58177U 23167C 26034.50194181 .00000233 00000-0 32284-4 0 9992
2 58177 43.0035 331.6023 0001142 270.9126 89.1586 15.02537236125816
Epoch: Feb 3, 2026 • Age: 13 hours

現在のステータス

高度 561.2 km
速度 7.59 km/s
衛星直下点 34.90°N, 54.05°W
打ち上げ日 Oct 30, 2023
運用期間 2.2 years
タイプ internet

技術仕様

分類 Payload
質量 730.00 kg
乾燥質量 700.00 kg
総質量 730.00 kg
長さ 0.30 m
直径 4.10 m
スパン 29.00 m
形状 Box + pan
製造者 SPXS
バスタイプ Starlink V2M
フェーズステータス In Orbit
所有者/国 SPXS/US

大規模コンステレーション

Loading constellations...